Location: Heidgraben
(53.7081°N, 9.6576°E)
Time: 00:13:53
(UTC+00:00)

Cosmos 2333 Rocket - Pass Details

Date: 27 October 2020
Orbit: 841 x 861 km, 70.8° (Epoch: 28 November)

Event Time Altitude Azimuth Distance (km) Brightness Sun altitude
Exits shadow 02:38:56 13° 343° (NNW) 2,309 4.5 -31.6°
Maximum altitude 02:40:39 14° 3° (N) 2,207 4.6 -31.4°
Drops below altitude 10° 02:43:35 10° 34° (NE) 2,481 5.3 -31.0°
Sets 02:47:22 0° 59° (ENE) 3,412 6.5 -30.4°
